| time (UTC) | temp C | wind direction | speed KPH | gust KPH | rain 1hr cm | rain 24hr cm | rain mn cm | humidity % | barometer mb |
| 20260510221101 | 20 | 184 | 6.4 | 17.7 | 0.00 | 0.00 | 0.00 | 76 | 1012.2 |
| 20260510220556 | 20 | 151 | 6.4 | 14.5 | 0.00 | 0.00 | 0.00 | 76 | 1012.3 |
| 20260510220058 | 20 | 235 | 6.4 | 14.5 | 0.00 | 0.00 | 0.00 | 76 | 1012.3 |
| 20260510215555 | 20 | 269 | 4.8 | 17.7 | 0.00 | 0.00 | 0.00 | 78 | 1012.4 |
| 20260510215059 | 19 | 215 | 6.4 | 17.7 | 0.00 | 0.00 | 0.00 | 78 | 1012.4 |
| 20260510214556 | 19 | 300 | 9.7 | 20.9 | 0.00 | 0.00 | 0.00 | 77 | 1012.3 |
| 20260510214056 | 19 | 254 | 9.7 | 20.9 | 0.00 | 0.00 | 0.00 | 77 | 1012.4 |
| 20260510213557 | 20 | 220 | 9.7 | 17.7 | 0.00 | 0.00 | 0.00 | 75 | 1012.4 |
| 20260510213054 | 20 | 173 | 4.8 | 16.1 | 0.00 | 0.00 | 0.00 | 77 | 1012.5 |
| 20260510212556 | 20 | 252 | 8.0 | 19.3 | 0.00 | 0.00 | 0.00 | 77 | 1012.5 |
| 20260510212055 | 20 | 212 | 8.0 | 19.3 | 0.00 | 0.00 | 0.00 | 77 | 1012.5 |
| 20260510211554 | 20 | 217 | 6.4 | 17.7 | 0.00 | 0.00 | 0.00 | 77 | 1012.5 |
| 20260510211055 | 20 | 281 | 6.4 | 17.7 | 0.00 | 0.00 | 0.00 | 77 | 1012.6 |
| 20260510210555 | 19 | 277 | 8.0 | 16.1 | 0.00 | 0.00 | 0.00 | 77 | 1012.5 |
| 20260510210100 | 19 | 192 | 8.0 | 16.1 | 0.00 | 0.00 | 0.00 | 77 | 1012.7 |
| 20260510205558 | 19 | 216 | 6.4 | 20.9 | 0.00 | 0.00 | 0.00 | 79 | 1012.7 |
| 20260510205055 | 19 | 194 | 11.3 | 20.9 | 0.00 | 0.00 | 0.00 | 78 | 1012.7 |
| 20260510204607 | 19 | 165 | 8.0 | 16.1 | 0.00 | 0.00 | 0.00 | 78 | 1012.7 |
| 20260510204055 | 19 | 200 | 8.0 | 20.9 | 0.00 | 0.00 | 0.00 | 78 | 1012.7 |
| 20260510203558 | 19 | 225 | 9.7 | 20.9 | 0.00 | 0.00 | 0.00 | 79 | 1012.7 |
| 20260510203100 | 19 | 263 | 14.5 | 20.9 | 0.00 | 0.00 | 0.00 | 77 | 1012.8 |
| 20260510202557 | 19 | 269 | 9.7 | 19.3 | 0.00 | 0.00 | 0.00 | 77 | 1012.7 |
| 20260510202059 | 19 | 186 | 8.0 | 19.3 | 0.00 | 0.00 | 0.00 | 77 | 1012.9 |
| 20260510201559 | 20 | 191 | 8.0 | 17.7 | 0.00 | 0.00 | 0.00 | 75 | 1012.8 |
| 20260510201057 | 20 | 271 | 8.0 | 17.7 | 0.00 | 0.00 | 0.00 | 77 | 1012.8 |
| 20260510200555 | 20 | 182 | 9.7 | 20.9 | 0.00 | 0.00 | 0.00 | 76 | 1012.8 |
| 20260510200117 | 20 | 232 | 6.4 | 20.9 | 0.00 | 0.00 | 0.00 | 77 | 1012.8 |
| 20260510195557 | 20 | 200 | 6.4 | 17.7 | 0.00 | 0.00 | 0.00 | 76 | 1012.7 |
| 20260510195056 | 20 | 192 | 8.0 | 17.7 | 0.00 | 0.00 | 0.00 | 76 | 1012.7 |
| 20260510194611 | 20 | 209 | 6.4 | 17.7 | 0.00 | 0.00 | 0.00 | 76 | 1012.8 |
| 20260510194057 | 20 | 281 | 8.0 | 17.7 | 0.00 | 0.00 | 0.00 | 76 | 1012.8 |
| 20260510193559 | 20 | 177 | 8.0 | 17.7 | 0.00 | 0.00 | 0.00 | 74 | 1012.8 |
| 20260510193105 | 20 | 255 | 9.7 | 17.7 | 0.00 | 0.00 | 0.00 | 75 | 1012.8 |
| 20260510192601 | 20 | 196 | 8.0 | 16.1 | 0.00 | 0.00 | 0.00 | 74 | 1012.8 |
| 20260510192056 | 20 | 265 | 8.0 | 16.1 | 0.00 | 0.00 | 0.00 | 76 | 1012.9 |
| 20260510191605 | 20 | 264 | 6.4 | 17.7 | 0.00 | 0.00 | 0.00 | 76 | 1012.8 |
| 20260510191056 | 20 | 223 | 8.0 | 17.7 | 0.00 | 0.00 | 0.00 | 75 | 1012.8 |
| 20260510190555 | 20 | 205 | 4.8 | 16.1 | 0.00 | 0.00 | 0.00 | 75 | 1012.8 |
| 20260510190057 | 20 | 171 | 6.4 | 17.7 | 0.00 | 0.00 | 0.00 | 74 | 1012.8 |
| 20260510185555 | 20 | 163 | 9.7 | 17.7 | 0.00 | 0.00 | 0.00 | 74 | 1012.8 |
| 20260510185055 | 20 | 256 | 8.0 | 16.1 | 0.00 | 0.00 | 0.00 | 74 | 1012.8 |
| 20260510184553 | 21 | 159 | 8.0 | 19.3 | 0.00 | 0.00 | 0.00 | 72 | 1012.9 |
| 20260510184055 | 21 | 200 | 8.0 | 19.3 | 0.00 | 0.00 | 0.00 | 71 | 1012.9 |
| 20260510183555 | 21 | 194 | 6.4 | 16.1 | 0.00 | 0.00 | 0.00 | 70 | 1012.8 |
| 20260510183101 | 21 | 178 | 3.2 | 16.1 | 0.00 | 0.00 | 0.00 | 69 | 1012.8 |
| 20260510182557 | 21 | 180 | 1.6 | 11.3 | 0.00 | 0.00 | 0.00 | 71 | 1012.8 |
| 20260510182056 | 21 | 206 | 1.6 | 11.3 | 0.00 | 0.00 | 0.00 | 72 | 1012.8 |
| 20260510181552 | 20 | 296 | 6.4 | 11.3 | 0.00 | 0.00 | 0.00 | 72 | 1012.8 |
| 20260510181058 | 20 | 219 | 1.6 | 11.3 | 0.00 | 0.00 | 0.00 | 72 | 1012.8 |
| 20260510180555 | 20 | 195 | 4.8 | 11.3 | 0.00 | 0.00 | 0.00 | 73 | 1012.7 |
| 20260510180056 | 20 | 237 | 4.8 | 11.3 | 0.00 | 0.00 | 0.00 | 73 | 1012.7 |
| 20260510175555 | 20 | 230 | 1.6 | 6.4 | 0.00 | 0.00 | 0.00 | 73 | 1012.7 |
| 20260510175056 | 20 | 250 | 1.6 | 11.3 | 0.00 | 0.00 | 0.00 | 74 | 1012.7 |
| 20260510174600 | 20 | 0 | 3.2 | 11.3 | 0.00 | 0.00 | 0.00 | 74 | 1012.7 |
| 20260510174057 | 20 | 0 | 4.8 | 9.7 | 0.00 | 0.00 | 0.00 | 75 | 1012.7 |
| 20260510173555 | 20 | 0 | 3.2 | 6.4 | 0.00 | 0.00 | 0.00 | 74 | 1012.6 |
| 20260510173108 | 20 | 219 | 0.0 | 8.0 | 0.00 | 0.00 | 0.00 | 76 | 1012.6 |
| 20260510172556 | 20 | 336 | 1.6 | 9.7 | 0.00 | 0.00 | 0.00 | 76 | 1012.6 |
| 20260510172055 | 19 | 0 | 1.6 | 9.7 | 0.00 | 0.00 | 0.00 | 77 | 1012.7 |
| 20260510171559 | 19 | 192 | 1.6 | 11.3 | 0.00 | 0.00 | 0.00 | 78 | 1012.7 |
| 20260510171057 | 18 | 0 | 3.2 | 11.3 | 0.00 | 0.00 | 0.00 | 79 | 1012.8 |
| 20260510170556 | 18 | 223 | 1.6 | 9.7 | 0.00 | 0.00 | 0.00 | 80 | 1012.8 |
| 20260510170107 | 18 | 257 | 3.2 | 9.7 | 0.00 | 0.00 | 0.00 | 80 | 1012.8 |
| 20260510165557 | 18 | 167 | 1.6 | 6.4 | 0.00 | 0.00 | 0.00 | 81 | 1012.8 |
| 20260510165055 | 17 | 86 | 0.0 | 8.0 | 0.00 | 0.00 | 0.00 | 83 | 1012.6 |
| 20260510164559 | 17 | 0 | 3.2 | 8.0 | 0.00 | 0.00 | 0.00 | 83 | 1012.6 |
| 20260510164055 | 17 | 0 | 1.6 | 8.0 | 0.00 | 0.00 | 0.00 | 84 | 1012.6 |
| 20260510163557 | 17 | 182 | 1.6 | 11.3 | 0.00 | 0.00 | 0.00 | 85 | 1012.7 |
| 20260510163058 | 17 | 219 | 4.8 | 11.3 | 0.00 | 0.00 | 0.00 | 85 | 1012.5 |
| 20260510162556 | 17 | 267 | 3.2 | 8.0 | 0.00 | 0.00 | 0.00 | 85 | 1012.6 |
| 20260510162055 | 17 | 232 | 3.2 | 8.0 | 0.00 | 0.00 | 0.00 | 85 | 1012.5 |
| 20260510161557 | 17 | 211 | 0.0 | 4.8 | 0.00 | 0.00 | 0.00 | 86 | 1012.4 |
| 20260510161055 | 16 | 0 | 0.0 | 3.2 | 0.00 | 0.00 | 0.00 | 87 | 1012.4 |
| 20260510160557 | 16 | 0 | 1.6 | 3.2 | 0.00 | 0.00 | 0.00 | 87 | 1012.3 |
| 20260510160055 | 16 | 0 | 0.0 | 6.4 | 0.00 | 0.00 | 0.00 | 88 | 1012.3 |
| 20260510155559 | 16 | 0 | 0.0 | 6.4 | 0.00 | 0.00 | 0.00 | 87 | 1012.3 |
| 20260510155055 | 16 | 238 | 1.6 | 6.4 | 0.00 | 0.00 | 0.00 | 87 | 1012.3 |
| 20260510154559 | 16 | 202 | 3.2 | 6.4 | 0.00 | 0.00 | 0.00 | 88 | 1012.2 |
| 20260510154056 | 16 | 211 | 0.0 | 3.2 | 0.00 | 0.00 | 0.00 | 89 | 1012.1 |
| 20260510153555 | 16 | 0 | 0.0 | 3.2 | 0.00 | 0.00 | 0.00 | 89 | 1012.1 |
| 20260510153056 | 16 | 0 | 0.0 | 3.2 | 0.00 | 0.00 | 0.00 | 90 | 1012.2 |
| 20260510152559 | 16 | 0 | 0.0 | 3.2 | 0.00 | 0.00 | 0.00 | 90 | 1012.1 |
| 20260510152055 | 15 | 247 | 0.0 | 6.4 | 0.00 | 0.00 | 0.00 | 90 | 1012.2 |
| 20260510151601 | 15 | 0 | 0.0 | 6.4 | 0.00 | 0.00 | 0.00 | 90 | 1012.2 |
| 20260510151055 | 15 | 197 | 1.6 | 6.4 | 0.00 | 0.00 | 0.00 | 90 | 1012.2 |
| 20260510150556 | 15 | 0 | 0.0 | 4.8 | 0.00 | 0.00 | 0.00 | 91 | 1012.2 |
| 20260510150055 | 15 | 0 | 0.0 | 4.8 | 0.00 | 0.00 | 0.00 | 91 | 1012.2 |
| 20260510145556 | 15 | 0 | 0.0 | 4.8 | 0.00 | 0.00 | 0.00 | 91 | 1012.1 |
| 20260510145055 | 15 | 306 | 0.0 | 4.8 | 0.00 | 0.00 | 0.00 | 91 | 1012.1 |
| 20260510144554 | 15 | 0 | 0.0 | 4.8 | 0.00 | 0.00 | 0.00 | 92 | 1012.1 |
| 20260510144055 | 15 | 42 | 1.6 | 4.8 | 0.00 | 0.00 | 0.00 | 92 | 1012.2 |
| 20260510143555 | 15 | 0 | 0.0 | 6.4 | 0.00 | 0.00 | 0.00 | 92 | 1012.1 |
| 20260510143055 | 15 | 0 | 0.0 | 6.4 | 0.00 | 0.00 | 0.00 | 92 | 1012.1 |
| 20260510142558 | 15 | 11 | 1.6 | 6.4 | 0.00 | 0.00 | 0.00 | 92 | 1012.0 |
| 20260510142100 | 15 | 33 | 1.6 | 4.8 | 0.00 | 0.00 | 0.00 | 92 | 1012.1 |
| 20260510141602 | 15 | 0 | 0.0 | 4.8 | 0.00 | 0.00 | 0.00 | 92 | 1012.0 |
| 20260510141056 | 15 | 318 | 0.0 | 4.8 | 0.00 | 0.00 | 0.00 | 92 | 1012.0 |
| 20260510140555 | 15 | 0 | 0.0 | 3.2 | 0.00 | 0.00 | 0.00 | 93 | 1012.0 |
| 20260510140056 | 15 | 0 | 0.0 | 6.4 | 0.00 | 0.00 | 0.00 | 93 | 1012.0 |
| 20260510135556 | 15 | 338 | 0.0 | 6.4 | 0.00 | 0.00 | 0.00 | 93 | 1011.9 |
| 20260510135056 | 15 | 13 | 0.0 | 6.4 | 0.00 | 0.00 | 0.00 | 93 | 1011.9 |
| 20260510134607 | 15 | 0 | 0.0 | 0.0 | 0.00 | 0.00 | 0.00 | 93 | 1011.8 |
| 20260510134058 | 15 | 0 | 0.0 | 4.8 | 0.00 | 0.00 | 0.00 | 93 | 1011.8 |
| 20260510133555 | 15 | 0 | 0.0 | 6.4 | 0.00 | 0.00 | 0.00 | 93 | 1011.8 |
| 20260510133110 | 15 | 339 | 1.6 | 8.0 | 0.00 | 0.00 | 0.00 | 93 | 1011.8 |
| 20260510132555 | 15 | 336 | 1.6 | 8.0 | 0.00 | 0.00 | 0.00 | 93 | 1011.8 |
| 20260510132058 | 15 | 0 | 1.6 | 6.4 | 0.00 | 0.00 | 0.00 | 93 | 1011.8 |
| 20260510131603 | 15 | 0 | 0.0 | 4.8 | 0.00 | 0.00 | 0.00 | 94 | 1011.7 |
| 20260510131056 | 14 | 0 | 0.0 | 4.8 | 0.00 | 0.00 | 0.00 | 94 | 1011.7 |
| 20260510130556 | 14 | 0 | 0.0 | 4.8 | 0.00 | 0.00 | 0.00 | 94 | 1011.7 |
| 20260510130055 | 14 | 0 | 1.6 | 4.8 | 0.00 | 0.00 | 0.00 | 94 | 1011.6 |
| 20260510125555 | 14 | 0 | 0.0 | 4.8 | 0.00 | 0.00 | 0.00 | 94 | 1011.7 |
| 20260510125056 | 14 | 0 | 0.0 | 3.2 | 0.00 | 0.00 | 0.00 | 94 | 1011.7 |
| 20260510124558 | 14 | 0 | 0.0 | 4.8 | 0.00 | 0.00 | 0.00 | 94 | 1011.8 |
| 20260510124056 | 14 | 0 | 1.6 | 4.8 | 0.00 | 0.00 | 0.00 | 94 | 1011.8 |
| 20260510123556 | 14 | 0 | 0.0 | 4.8 | 0.00 | 0.00 | 0.00 | 94 | 1011.7 |
| 20260510123102 | 14 | 0 | 0.0 | 4.8 | 0.00 | 0.00 | 0.00 | 94 | 1011.7 |
| 20260510122558 | 14 | 59 | 0.0 | 4.8 | 0.00 | 0.00 | 0.00 | 94 | 1011.8 |
| 20260510122055 | 14 | 61 | 0.0 | 3.2 | 0.00 | 0.00 | 0.00 | 95 | 1011.8 |
| 20260510121554 | 14 | 0 | 0.0 | 3.2 | 0.00 | 0.00 | 0.00 | 95 | 1011.8 |
| 20260510121055 | 14 | 0 | 0.0 | 0.0 | 0.00 | 0.00 | 0.00 | 95 | 1011.7 |
| 20260510120556 | 14 | 0 | 0.0 | 0.0 | 0.00 | 0.00 | 0.00 | 95 | 1011.7 |
| 20260510120056 | 14 | 0 | 0.0 | 3.2 | 0.00 | 0.00 | 0.00 | 95 | 1011.7 |
| 20260510115558 | 14 | 0 | 0.0 | 4.8 | 0.00 | 0.00 | 0.00 | 95 | 1011.7 |
| 20260510115055 | 14 | 0 | 1.6 | 4.8 | 0.00 | 0.00 | 0.00 | 95 | 1011.7 |
| 20260510114604 | 14 | 0 | 0.0 | 3.2 | 0.00 | 0.00 | 0.00 | 95 | 1011.7 |
| 20260510114056 | 14 | 0 | 0.0 | 3.2 | 0.00 | 0.00 | 0.00 | 95 | 1011.8 |
| 20260510113557 | 14 | 0 | 0.0 | 3.2 | 0.00 | 0.00 | 0.00 | 95 | 1011.8 |
| 20260510113055 | 14 | 49 | 0.0 | 3.2 | 0.00 | 0.00 | 0.00 | 95 | 1011.7 |
| 20260510112556 | 14 | 0 | 0.0 | 4.8 | 0.00 | 0.00 | 0.00 | 95 | 1011.7 |
| 20260510112056 | 14 | 0 | 0.0 | 4.8 | 0.00 | 0.00 | 0.00 | 95 | 1011.7 |
| 20260510111600 | 14 | 0 | 1.6 | 4.8 | 0.00 | 0.00 | 0.00 | 95 | 1011.6 |
| 20260510111055 | 14 | 0 | 0.0 | 4.8 | 0.00 | 0.00 | 0.00 | 95 | 1011.6 |
| 20260510110556 | 14 | 0 | 0.0 | 4.8 | 0.00 | 0.00 | 0.00 | 95 | 1011.6 |
| 20260510110055 | 14 | 113 | 0.0 | 6.4 | 0.00 | 0.00 | 0.00 | 95 | 1011.6 |
| 20260510105556 | 14 | 150 | 0.0 | 6.4 | 0.00 | 0.00 | 0.00 | 95 | 1011.7 |
| 20260510105056 | 13 | 163 | 0.0 | 3.2 | 0.00 | 0.00 | 0.00 | 95 | 1011.7 |
| 20260510104554 | 13 | 0 | 0.0 | 4.8 | 0.00 | 0.00 | 0.00 | 95 | 1011.8 |
| 20260510104058 | 13 | 0 | 1.6 | 4.8 | 0.00 | 0.00 | 0.00 | 95 | 1011.7 |
| 20260510103555 | 13 | 48 | 0.0 | 6.4 | 0.00 | 0.00 | 0.00 | 95 | 1011.7 |
| 20260510103058 | 13 | 42 | 0.0 | 6.4 | 0.00 | 0.00 | 0.00 | 95 | 1011.6 |
| 20260510102556 | 13 | 53 | 1.6 | 6.4 | 0.00 | 0.00 | 0.00 | 95 | 1011.7 |
| 20260510102056 | 13 | 65 | 1.6 | 3.2 | 0.00 | 0.00 | 0.00 | 95 | 1011.6 |
| 20260510101556 | 13 | 65 | 0.0 | 3.2 | 0.00 | 0.00 | 0.00 | 95 | 1011.5 |
| 20260510101056 | 13 | 65 | 1.6 | 3.2 | 0.00 | 0.00 | 0.00 | 94 | 1011.6 |
| 20260510100556 | 13 | 0 | 0.0 | 0.0 | 0.00 | 0.00 | 0.00 | 95 | 1011.6 |
| 20260510100055 | 13 | 0 | 0.0 | 0.0 | 0.00 | 0.00 | 0.00 | 95 | 1011.7 |
| 20260510095556 | 13 | 0 | 0.0 | 0.0 | 0.00 | 0.00 | 0.00 | 94 | 1011.8 |
| 20260510095056 | 13 | 0 | 0.0 | 0.0 | 0.00 | 0.00 | 0.00 | 94 | 1011.8 |
| 20260510094554 | 13 | 0 | 0.0 | 3.2 | 0.00 | 0.00 | 0.00 | 95 | 1011.9 |
| 20260510094058 | 13 | 0 | 0.0 | 3.2 | 0.00 | 0.00 | 0.00 | 94 | 1011.9 |
| 20260510093555 | 13 | 67 | 0.0 | 4.8 | 0.00 | 0.00 | 0.00 | 94 | 1011.8 |
| 20260510093055 | 13 | 54 | 0.0 | 4.8 | 0.00 | 0.00 | 0.00 | 94 | 1011.9 |
| 20260510092555 | 13 | 55 | 0.0 | 8.0 | 0.00 | 0.00 | 0.00 | 94 | 1011.8 |
| 20260510092057 | 13 | 0 | 3.2 | 8.0 | 0.00 | 0.00 | 0.00 | 94 | 1011.8 |
| 20260510091559 | 13 | 58 | 1.6 | 8.0 | 0.00 | 0.00 | 0.00 | 94 | 1011.8 |
| 20260510091056 | 13 | 65 | 3.2 | 8.0 | 0.00 | 0.00 | 0.00 | 94 | 1011.8 |
| 20260510090556 | 13 | 62 | 0.0 | 6.4 | 0.00 | 0.00 | 0.00 | 94 | 1011.8 |
| 20260510090100 | 13 | 55 | 1.6 | 6.4 | 0.00 | 0.00 | 0.00 | 93 | 1011.8 |
| 20260510085559 | 13 | 0 | 0.0 | 9.7 | 0.00 | 0.00 | 0.00 | 94 | 1011.8 |
| 20260510085056 | 13 | 118 | 3.2 | 9.7 | 0.00 | 0.00 | 0.00 | 93 | 1011.8 |
| 20260510084555 | 13 | 67 | 1.6 | 6.4 | 0.00 | 0.00 | 0.00 | 93 | 1011.8 |
| 20260510084056 | 14 | 50 | 3.2 | 6.4 | 0.00 | 0.00 | 0.00 | 93 | 1011.7 |
| 20260510083556 | 14 | 59 | 1.6 | 6.4 | 0.00 | 0.00 | 0.00 | 93 | 1011.7 |
| 20260510083057 | 14 | 86 | 0.0 | 4.8 | 0.00 | 0.00 | 0.00 | 93 | 1011.7 |
| 20260510082555 | 14 | 0 | 0.0 | 6.4 | 0.00 | 0.00 | 0.00 | 93 | 1011.8 |
| 20260510082055 | 14 | 58 | 3.2 | 6.4 | 0.00 | 0.00 | 0.00 | 93 | 1011.8 |
| 20260510081556 | 14 | 65 | 3.2 | 6.4 | 0.00 | 0.00 | 0.00 | 93 | 1011.9 |
| 20260510081056 | 14 | 0 | 0.0 | 3.2 | 0.00 | 0.00 | 0.00 | 93 | 1011.9 |
| 20260510080555 | 14 | 109 | 0.0 | 4.8 | 0.00 | 0.00 | 0.00 | 93 | 1012.0 |
| 20260510080054 | 14 | 97 | 0.0 | 6.4 | 0.00 | 0.00 | 0.00 | 93 | 1012.0 |
| 20260510075557 | 14 | 64 | 1.6 | 6.4 | 0.00 | 0.00 | 0.00 | 93 | 1012.1 |
| 20260510075055 | 14 | 0 | 0.0 | 0.0 | 0.00 | 0.00 | 0.00 | 93 | 1012.1 |
| 20260510074557 | 14 | 0 | 0.0 | 0.0 | 0.00 | 0.00 | 0.00 | 93 | 1012.2 |
| 20260510074056 | 14 | 0 | 0.0 | 0.0 | 0.00 | 0.00 | 0.00 | 93 | 1012.1 |
| 20260510073556 | 14 | 0 | 0.0 | 0.0 | 0.00 | 0.00 | 0.00 | 93 | 1012.2 |
| 20260510073112 | 14 | 0 | 0.0 | 0.0 | 0.00 | 0.00 | 0.00 | 93 | 1012.2 |
| 20260510072556 | 14 | 0 | 0.0 | 0.0 | 0.00 | 0.00 | 0.00 | 93 | 1012.2 |
| 20260510072056 | 14 | 0 | 0.0 | 0.0 | 0.00 | 0.00 | 0.00 | 93 | 1012.2 |
| 20260510071605 | 14 | 0 | 0.0 | 3.2 | 0.00 | 0.00 | 0.00 | 92 | 1012.2 |
| 20260510071055 | 14 | 0 | 0.0 | 3.2 | 0.00 | 0.00 | 0.00 | 92 | 1012.3 |
| 20260510070555 | 14 | 55 | 0.0 | 3.2 | 0.00 | 0.00 | 0.00 | 92 | 1012.2 |
| 20260510070056 | 14 | 86 | 0.0 | 3.2 | 0.00 | 0.00 | 0.00 | 92 | 1012.2 |
| 20260510065556 | 14 | 0 | 0.0 | 4.8 | 0.00 | 0.00 | 0.00 | 92 | 1012.2 |
| 20260510065056 | 14 | 0 | 1.6 | 4.8 | 0.00 | 0.00 | 0.00 | 92 | 1012.3 |
| 20260510064600 | 14 | 0 | 0.0 | 4.8 | 0.00 | 0.00 | 0.00 | 92 | 1012.2 |
| 20260510064056 | 14 | 61 | 1.6 | 4.8 | 0.00 | 0.00 | 0.00 | 92 | 1012.3 |
| 20260510063556 | 14 | 0 | 0.0 | 3.2 | 0.00 | 0.00 | 0.00 | 92 | 1012.2 |
| 20260510063103 | 14 | 0 | 1.6 | 3.2 | 0.00 | 0.00 | 0.00 | 92 | 1012.2 |
| 20260510062556 | 14 | 0 | 0.0 | 3.2 | 0.00 | 0.00 | 0.00 | 92 | 1012.2 |
| 20260510062056 | 14 | 0 | 0.0 | 4.8 | 0.00 | 0.00 | 0.00 | 92 | 1012.2 |
| 20260510061558 | 14 | 0 | 0.0 | 4.8 | 0.00 | 0.00 | 0.00 | 92 | 1012.1 |
| 20260510061059 | 15 | 77 | 1.6 | 4.8 | 0.00 | 0.00 | 0.00 | 92 | 1012.2 |
| 20260510060557 | 14 | 171 | 0.0 | 3.2 | 0.00 | 0.00 | 0.00 | 92 | 1012.2 |
| 20260510060059 | 15 | 0 | 0.0 | 3.2 | 0.00 | 0.00 | 0.00 | 92 | 1012.2 |
| 20260510055558 | 14 | 0 | 0.0 | 4.8 | 0.00 | 0.00 | 0.00 | 92 | 1012.2 |
| 20260510055056 | 15 | 0 | 1.6 | 4.8 | 0.00 | 0.00 | 0.00 | 92 | 1012.2 |
| 20260510054559 | 15 | 167 | 0.0 | 1.6 | 0.00 | 0.00 | 0.00 | 92 | 1012.2 |
| 20260510054056 | 14 | 0 | 0.0 | 3.2 | 0.00 | 0.00 | 0.00 | 92 | 1012.3 |
| 20260510053555 | 14 | 0 | 0.0 | 4.8 | 0.00 | 0.00 | 0.00 | 92 | 1012.3 |
| 20260510053107 | 14 | 69 | 0.0 | 4.8 | 0.00 | 0.00 | 0.00 | 92 | 1012.3 |
| 20260510052555 | 15 | 0 | 0.0 | 4.8 | 0.00 | 0.00 | 0.00 | 92 | 1012.3 |
| 20260510052055 | 15 | 0 | 1.6 | 4.8 | 0.00 | 0.00 | 0.00 | 92 | 1012.3 |
| 20260510051601 | 15 | 0 | 0.0 | 3.2 | 0.00 | 0.00 | 0.00 | 92 | 1012.2 |
| 20260510051057 | 15 | 0 | 0.0 | 0.0 | 0.00 | 0.00 | 0.00 | 92 | 1012.3 |
| 20260510050557 | 15 | 0 | 0.0 | 1.6 | 0.00 | 0.00 | 0.00 | 93 | 1012.2 |
| 20260510050059 | 15 | 0 | 0.0 | 1.6 | 0.00 | 0.00 | 0.00 | 93 | 1012.1 |
| 20260510045556 | 14 | 0 | 0.0 | 0.0 | 0.00 | 0.00 | 0.00 | 93 | 1012.1 |
| 20260510045057 | 14 | 0 | 0.0 | 0.0 | 0.00 | 0.00 | 0.00 | 93 | 1012.2 |
| 20260510044554 | 14 | 0 | 0.0 | 0.0 | 0.00 | 0.00 | 0.00 | 93 | 1012.1 |
| 20260510044057 | 14 | 0 | 0.0 | 0.0 | 0.00 | 0.00 | 0.00 | 93 | 1012.1 |
| 20260510043648 | 14 | 0 | 0.0 | 3.2 | 0.00 | 0.00 | 0.00 | 93 | 1012.0 |
| 20260510043108 | 14 | 0 | 0.0 | 4.8 | 0.00 | 0.00 | 0.00 | 93 | 1011.9 |
| 20260510042555 | 14 | 0 | 0.0 | 4.8 | 0.00 | 0.00 | 0.00 | 93 | 1011.9 |
| 20260510042055 | 14 | 11 | 0.0 | 3.2 | 0.00 | 0.00 | 0.00 | 93 | 1011.9 |
| 20260510041558 | 14 | 0 | 0.0 | 3.2 | 0.00 | 0.00 | 0.00 | 93 | 1012.0 |
| 20260510041056 | 14 | 0 | 0.0 | 6.4 | 0.00 | 0.00 | 0.00 | 93 | 1011.9 |
| 20260510040556 | 14 | 309 | 0.0 | 6.4 | 0.00 | 0.00 | 0.00 | 93 | 1011.9 |
| 20260510040109 | 14 | 298 | 3.2 | 6.4 | 0.00 | 0.00 | 0.00 | 92 | 1011.9 |
| 20260510035556 | 14 | 0 | 0.0 | 11.3 | 0.00 | 0.00 | 0.00 | 93 | 1011.8 |
| 20260510035055 | 14 | 240 | 3.2 | 11.3 | 0.00 | 0.00 | 0.00 | 92 | 1011.9 |
| 20260510034600 | 14 | 272 | 3.2 | 11.3 | 0.00 | 0.00 | 0.00 | 92 | 1011.8 |
| 20260510034055 | 14 | 269 | 3.2 | 11.3 | 0.00 | 0.00 | 0.00 | 92 | 1011.8 |
| 20260510033557 | 14 | 0 | 1.6 | 6.4 | 0.00 | 0.00 | 0.00 | 92 | 1011.7 |
| 20260510033101 | 14 | 263 | 0.0 | 8.0 | 0.00 | 0.00 | 0.00 | 92 | 1011.6 |
| 20260510032556 | 14 | 289 | 1.6 | 9.7 | 0.00 | 0.00 | 0.00 | 92 | 1011.6 |
| 20260510032056 | 14 | 314 | 3.2 | 9.7 | 0.00 | 0.00 | 0.00 | 92 | 1011.5 |
| 20260510031557 | 14 | 272 | 1.6 | 6.4 | 0.00 | 0.00 | 0.00 | 92 | 1011.5 |
| 20260510031055 | 14 | 205 | 0.0 | 8.0 | 0.00 | 0.00 | 0.00 | 92 | 1011.4 |
| 20260510030555 | 14 | 0 | 1.6 | 11.3 | 0.00 | 0.00 | 0.00 | 92 | 1011.2 |
| 20260510030056 | 15 | 165 | 4.8 | 11.3 | 0.00 | 0.00 | 0.00 | 92 | 1011.2 |
| 20260510025555 | 15 | 281 | 3.2 | 9.7 | 0.00 | 0.00 | 0.00 | 92 | 1011.2 |
| 20260510025056 | 15 | 272 | 0.0 | 8.0 | 0.00 | 0.00 | 0.00 | 92 | 1011.1 |
| 20260510024558 | 15 | 0 | 0.0 | 11.3 | 0.00 | 0.00 | 0.00 | 92 | 1011.1 |
| 20260510024056 | 15 | 284 | 4.8 | 12.9 | 0.00 | 0.00 | 0.00 | 91 | 1011.1 |
| 20260510023555 | 15 | 264 | 4.8 | 12.9 | 0.00 | 0.00 | 0.00 | 91 | 1010.9 |
| 20260510023055 | 15 | 176 | 6.4 | 12.9 | 0.00 | 0.00 | 0.00 | 91 | 1010.8 |
| 20260510022556 | 15 | 219 | 4.8 | 9.7 | 0.00 | 0.00 | 0.00 | 91 | 1010.8 |
| 20260510022056 | 15 | 250 | 1.6 | 12.9 | 0.00 | 0.00 | 0.00 | 91 | 1010.8 |
| 20260510021600 | 15 | 189 | 6.4 | 14.5 | 0.00 | 0.00 | 0.00 | 91 | 1010.8 |
| 20260510021056 | 15 | 198 | 6.4 | 14.5 | 0.00 | 0.00 | 0.00 | 91 | 1010.7 |
| 20260510020556 | 15 | 181 | 4.8 | 11.3 | 0.00 | 0.00 | 0.00 | 91 | 1010.6 |
| 20260510020055 | 15 | 219 | 1.6 | 9.7 | 0.00 | 0.00 | 0.00 | 91 | 1010.7 |
| 20260510015555 | 15 | 273 | 3.2 | 11.3 | 0.00 | 0.00 | 0.00 | 91 | 1010.6 |
| 20260510015059 | 15 | 166 | 4.8 | 14.5 | 0.00 | 0.00 | 0.00 | 91 | 1010.6 |
| 20260510014611 | 15 | 287 | 6.4 | 16.1 | 0.00 | 0.00 | 0.00 | 91 | 1010.6 |
| 20260510014055 | 15 | 276 | 8.0 | 16.1 | 0.00 | 0.00 | 0.00 | 91 | 1010.6 |
| 20260510013558 | 15 | 267 | 8.0 | 17.7 | 0.00 | 0.00 | 0.00 | 91 | 1010.6 |
| 20260510013103 | 15 | 278 | 11.3 | 19.3 | 0.00 | 0.00 | 0.00 | 90 | 1010.7 |
| 20260510012555 | 15 | 275 | 9.7 | 19.3 | 0.00 | 0.00 | 0.00 | 89 | 1010.6 |
| 20260510012055 | 15 | 262 | 8.0 | 17.7 | 0.00 | 0.00 | 0.00 | 89 | 1010.6 |
| 20260510011557 | 15 | 275 | 11.3 | 20.9 | 0.00 | 0.00 | 0.00 | 89 | 1010.7 |
| 20260510011056 | 16 | 299 | 11.3 | 20.9 | 0.00 | 0.00 | 0.00 | 88 | 1010.6 |
| 20260510010556 | 16 | 200 | 9.7 | 17.7 | 0.00 | 0.00 | 0.00 | 88 | 1010.6 |
| 20260510010054 | 16 | 173 | 8.0 | 17.7 | 0.00 | 0.00 | 0.00 | 87 | 1010.6 |
| 20260510005556 | 16 | 215 | 8.0 | 17.7 | 0.00 | 0.00 | 0.00 | 87 | 1010.6 |
| 20260510005056 | 16 | 175 | 9.7 | 17.7 | 0.00 | 0.00 | 0.00 | 86 | 1010.6 |
| 20260510004559 | 16 | 187 | 8.0 | 17.7 | 0.00 | 0.00 | 0.00 | 86 | 1010.5 |
| 20260510004100 | 16 | 264 | 4.8 | 16.1 | 0.00 | 0.00 | 0.00 | 86 | 1010.4 |
| 20260510003556 | 16 | 172 | 8.0 | 16.1 | 0.00 | 0.00 | 0.00 | 85 | 1010.5 |
| 20260510003105 | 17 | 269 | 8.0 | 20.9 | 0.00 | 0.00 | 0.00 | 85 | 1010.4 |
| 20260510002555 | 17 | 215 | 9.7 | 20.9 | 0.00 | 0.00 | 0.00 | 84 | 1010.5 |
| 20260510002055 | 17 | 222 | 9.7 | 16.1 | 0.00 | 0.00 | 0.00 | 83 | 1010.6 |
| 20260510001555 | 17 | 171 | 6.4 | 19.3 | 0.00 | 0.00 | 0.00 | 84 | 1010.6 |
| 20260510001055 | 17 | 173 | 9.7 | 19.3 | 0.00 | 0.00 | 0.00 | 82 | 1010.7 |
| 20260510000556 | 17 | 228 | 8.0 | 22.5 | 0.00 | 0.00 | 0.00 | 83 | 1010.7 |
| 20260510000059 | 17 | 146 | 11.3 | 22.5 | 0.00 | 0.00 | 0.00 | 81 | 1010.7 |
| 20260509235556 | 18 | 269 | 8.0 | 19.3 | 0.00 | 0.00 | 0.00 | 82 | 1010.6 |
| 20260509235056 | 18 | 213 | 12.9 | 19.3 | 0.00 | 0.00 | 0.00 | 80 | 1010.7 |
| 20260509234558 | 18 | 171 | 4.8 | 16.1 | 0.00 | 0.00 | 0.00 | 79 | 1010.6 |
| 20260509234056 | 18 | 250 | 6.4 | 19.3 | 0.00 | 0.00 | 0.00 | 80 | 1010.6 |
| 20260509233600 | 18 | 227 | 8.0 | 19.3 | 0.00 | 0.00 | 0.00 | 80 | 1010.5 |
| 20260509233101 | 18 | 232 | 8.0 | 19.3 | 0.00 | 0.00 | 0.00 | 79 | 1010.5 |
| 20260509232559 | 18 | 162 | 4.8 | 19.3 | 0.00 | 0.00 | 0.00 | 79 | 1010.7 |
| 20260509232057 | 18 | 238 | 9.7 | 19.3 | 0.00 | 0.00 | 0.00 | 79 | 1010.6 |
| 20260509231558 | 18 | 214 | 6.4 | 20.9 | 0.00 | 0.00 | 0.00 | 80 | 1010.6 |
| 20260509231055 | 18 | 279 | 9.7 | 20.9 | 0.00 | 0.00 | 0.00 | 80 | 1010.7 |
| 20260509230555 | 18 | 182 | 11.3 | 20.9 | 0.00 | 0.00 | 0.00 | 79 | 1010.6 |
| 20260509230100 | 19 | 178 | 6.4 | 17.7 | 0.00 | 0.00 | 0.00 | 78 | 1010.7 |
| 20260509225556 | 19 | 223 | 9.7 | 17.7 | 0.00 | 0.00 | 0.00 | 79 | 1010.6 |
| 20260509225055 | 19 | 289 | 6.4 | 20.9 | 0.00 | 0.00 | 0.00 | 79 | 1010.7 |
| 20260509224605 | 18 | 189 | 9.7 | 20.9 | 0.00 | 0.00 | 0.00 | 80 | 1010.8 |
| 20260509224056 | 18 | 286 | 11.3 | 20.9 | 0.00 | 0.00 | 0.00 | 79 | 1010.9 |
| 20260509223555 | 19 | 277 | 9.7 | 20.9 | 0.00 | 0.00 | 0.00 | 80 | 1011.0 |
| 20260509223059 | 19 | 288 | 11.3 | 20.9 | 0.00 | 0.00 | 0.00 | 77 | 1011.1 |
| 20260509222559 | 19 | 228 | 6.4 | 17.7 | 0.00 | 0.00 | 0.00 | 78 | 1011.1 |
| 20260509222056 | 19 | 267 | 8.0 | 17.7 | 0.00 | 0.00 | 0.00 | 78 | 1011.1 |
| 20260509221606 | 20 | 254 | 9.7 | 20.9 | 0.00 | 0.00 | 0.00 | 76 | 1011.2 |